CAPE
0 0 0 0 0 0 0 0 0 0 0 0 0 0 0 0 5 51 135 140 128 120 118 75 55 38 27 25 23 10 5 0 0 0 0 0 0 0 0 0 0 0 0
0 0 0 0 0 0 0 0 0 0 0 0 0 0 0 0 0 0 0 0 0 1 5 29 76 126 88 94 105 81 46 31 30 5 0 0 0 7 0 0 0 0 0
0 0 0 0 0 0 0 0 0 0 0 0 0 0 0 0 0 0 0 0 0 0 0 0 0 0 0 21 45 42 56 45 5 14 17 5 5 13 19 0 0 0 0
0 0 0 0 0 0 0 0 0 0 0 0 0 0 0 0 0 0 0 0 0 0 0 0 0 0 0 0 0 0 0 0 9 21 0 2 1 0 0 0 0 0 0
0 0 0 0 0 0 0 0 0 0 0 0 0 0 0 0 0 0 0 0 0 0 0 0 0 0 0 0 0 0 0 0 0 0 0 0 0 2 7 7 0 0 0
0 0 0 0 0 0 0 0 0 0 0 0 0 0 0 0 0 0 0 0 0 0 0 0 0 0 0 0 0 0 0 0 0 0 0 0 0 4 11 22 20 16 0
0 0 0 0 0 0 0 0 0 0 0 0 0 0 0 0 0 0 0 0 0 0 0 0 0 0 0 0 0 0 0 0 0 0 0 0 0 0 1 10 5 9 19
0 0 0 0 0 0 0 0 0 0 0 0 0 0 0 0 0 0 0 0 0 0 0 0 0 0 0 0 0 0 0 0 0 0 1 0 0 1 7 25 44 29 2
0 0 0 0 0 0 0 0 0 0 0 0 0 0 0 0 0 0 0 0 0 0 0 0 0 0 0 0 0 0 0 0 0 0 0 0 0 0 0 0 0 5 12
0 0 0 0 0 0 0 0 0 0 0 0 0 0 0 0 0 0 0 1 1 1 0 0 0 0 0 0 0 0 2 0 0 0 0 0 0 0 0 0 0 0 6
0 0 0 0 0 0 0 0 0 0 0 1 1 0 0 0 0 0 0 0 0 1 0 0 0 0 0 0 0 0 0 0 0 0 0 0 1 7 1 0 0 3 9
0 0 0 0 0 0 0 0 1 2 3 3 2 1 2 1 0 0 0 0 0 0 1 0 0 0 0 0 0 0 0 0 0 1 1 0 0 0 0 0 0 0 0
0 0 0 0 0 0 2 1 2 2 2 0 1 1 0 1 1 0 0 0 0 0 1 0 0 0 0 0 0 0 0 0 0 0 0 0 0 0 0 0 0 0 1
0 0 0 0 1 1 2 2 2 1 1 1 2 2 2 2 1 1 0 0 0 1 1 0 1 0 0 0 0 0 0 0 1 1 0 0 0 0 0 0 0 0 18
0 0 0 2 3 1 1 1 1 0 2 1 2 2 2 0 1 1 1 1 1 1 0 0 0 1 0 0 0 0 0 1 2 1 2 1 0 0 0 0 0 0 0
1 2 3 2 1 2 1 0 1 2 0 0 0 0 0 0 0 0 0 0 0 0 0 1 0 0 0 0 1 2 3 2 2 2 2 1 1 1 0 0 0 0 0
3 2 2 2 2 1 1 1 0 0 0 0 0 0 0 0 0 0 0 0 0 0 0 0 0 0 0 1 5 3 2 0 2 3 2 1 2 1 0 0 0 1 5
1 1 2 3 2 2 1 0 0 1 1 0 0 0 0 0 0 0 0 0 0 0 0 0 0 2 4 3 2 3 1 2 3 3 3 1 2 2 2 0 0 0 20
2 2 3 2 0 1 0 0 1 2 1 1 1 1 1 0 0 0 0 0 0 0 0 0 1 2 2 1 1 2 0 1 14 1 2 2 2 2 2 0 0 0 0
2 2 2 2 2 0 0 0 2 1 0 1 3 3 3 2 2 2 1 2 2 2 2 1 2 2 0 2 12 10 0 2 28 0 1 2 2 1 1 0 0 0 0
2 2 2 2 2 1 0 0 1 3 1 3 5 3 2 3 5 3 3 3 5 4 3 3 2 0 1 3 0 0 1 0 4 1 1 1 0 0 0 0 0 0 0
3 3 2 3 2 2 0 1 1 0 3 5 4 4 4 4 5 5 6 6 5 4 2 1 1 2 1 0 0 0 0 0 0 0 1 0 0 0 0 0 3 3 7
0 2 2 2 2 2 2 2 3 3 3 4 7 7 5 6 6 6 6 5 3 3 4 2 0 0 0 0 0 0 0 0 0 1 7 0 0 2 4 25 11 7 1
1 1 1 2 2 2 3 3 3 3 4 5 5 7 7 6 7 6 5 3 2 3 2 1 0 0 0 0 0 0 0 0 0 0 2 7 0 0 0 4 12 7 0
1 0 1 1 2 2 2 2 2 2 4 4 6 6 6 6 7 6 5 4 3 3 3 1 2 0 0 0 0 0 0 0 0 0 0 1 10 3 0 1 0 0 0
1 1 1 1 2 1 1 2 2 2 3 3 3 4 4 6 5 6 4 3 4 5 3 3 2 1 0 0 0 0 0 0 0 0 0 0 0 6 0 0 0 0 0
CIN
-0 -0 -0 -0 -0 -0 -0 -0 -0 -0 -0 -0 -0 -0 -0 -4 -50 -135 -103 -103 -98 -85 -84 -91 -80 -94 -94 -97 -103 -129 -81 -27 -0 -0 -0 -0 -0 -0 -0 -0 -0 -0 -0
-0 -0 -0 -0 -0 -0 -0 -0 -0 -0 -0 -0 -0 -0 -0 -0 -0 -0 -0 -0 -0 -7 -184 -109 -72 -49 -52 -38 -38 -33 -53 -74 -52 -45 -0 -0 -0 -85 -0 -0 -0 -0 -0
-0 -0 -0 -0 -0 -0 -0 -0 -0 -0 -0 -0 -0 -0 -0 -0 -0 -0 -0 -0 -0 -0 -0 -0 -0 -0 -0 -74 -67 -55 -47 -46 -29 -48 -37 -55 -33 -54 -66 -0 -0 -0 -0
-0 -0 -0 -0 -0 -0 -0 -0 -0 -0 -0 -0 -0 -0 -0 -0 -0 -0 -0 -0 -0 -0 -0 -0 -0 -0 -0 -0 -0 -0 -0 -0 -19 -25 -0 -11 -12 -1 -0 -0 -0 -0 -0
-0 -0 -0 -0 -0 -0 -0 -0 -0 -0 -0 -0 -0 -0 -0 -0 -0 -0 -0 -0 -0 -0 -0 -0 -0 -0 -0 -0 -0 -0 -0 -0 -0 -0 -0 -0 -2 -13 -18 -33 -0 -0 -0
-0 -0 -0 -0 -0 -0 -0 -0 -0 -0 -0 -0 -0 -0 -0 -0 -0 -0 -0 -0 -0 -0 -0 -0 -0 -0 -0 -0 -0 -0 -0 -0 -0 -0 -0 -0 -0 -24 -23 -11 -18 -18 -0
-0 -0 -0 -0 -0 -0 -0 -0 -0 -0 -0 -0 -0 -0 -0 -0 -0 -0 -0 -0 -0 -0 -0 -0 -0 -0 -0 -0 -0 -0 -0 -0 -0 -0 -0 -0 -0 -0 -11 -12 -24 -18 -8
-0 -0 -0 -0 -0 -0 -0 -0 -0 -0 -0 -0 -0 -0 -0 -0 -0 -0 -0 -0 -0 -0 -0 -0 -0 -0 -0 -0 -0 -0 -0 -0 -0 -0 -1 -2 -0 -2 -4 -9 -6 -10 -7
-0 -0 -0 -0 -0 -0 -0 -0 -0 -0 -0 -0 -0 -0 -0 -0 -0 -0 -0 -0 -0 -0 -0 -0 -0 -0 -0 -0 -0 -0 -0 -0 -0 -0 -0 -0 -0 -0 -0 -0 -2 -8 -0
-0 -0 -0 -0 -0 -0 -0 -0 -0 -0 -0 -0 -0 -0 -0 -0 -0 -0 -0 -0 -0 -0 -0 -0 -0 -0 -0 -0 -0 -0 -0 -0 -0 -0 -0 -0 -0 -0 -0 -0 -0 -0 -0
-0 -0 -0 -0 -0 -0 -0 -0 -0 -0 -0 -0 -0 -0 -0 -0 -0 -0 -0 -0 -0 -0 -0 -0 -0 -0 -0 -0 -0 -0 -0 -0 -0 -0 -0 -0 -0 -0 -1 -0 -0 -9 -2
-0 -0 -0 -0 -0 -0 -0 -0 -0 -0 -0 -0 -0 -0 -0 -0 -0 -0 -0 -0 -1 -0 -0 -0 -0 -0 -0 -0 -0 -0 -0 -0 -0 -0 -0 -0 -0 -0 -0 -0 -0 -0 -4
-0 -0 -0 -0 -0 -0 -0 -0 -0 -0 -0 -0 -0 -0 -0 -0 -0 -0 -0 -0 -0 -1 -0 -0 -0 -0 -0 -0 -0 -0 -0 -0 -0 -0 -0 -0 -0 -0 -0 -0 -0 -0 -26
-0 -0 -0 -0 -0 -0 -0 -0 -0 -0 -0 -0 -0 -0 -0 -0 -0 -0 -0 -0 -0 -0 -0 -0 -0 -0 -0 -0 -0 -0 -0 -0 -0 -0 -0 -0 -0 -0 -0 -0 -0 -0 -3
-0 -0 -0 -0 -0 -0 -0 -0 -0 -0 -0 -0 -0 -0 -0 -0 -0 -0 -0 -0 -0 -0 -0 -0 -0 -0 -0 -0 -0 -0 -0 -0 -0 -0 -0 -0 -0 -0 -0 -0 -0 -0 -0
-0 -0 -0 -0 -0 -0 -0 -0 -0 -0 -0 -0 -0 -0 -0 -0 -0 -0 -0 -0 -0 -0 -0 -0 -0 -0 -0 -0 -0 -0 -0 -0 -0 -0 -0 -0 -0 -0 -0 -0 -0 -0 -0
-0 -0 -0 -0 -0 -0 -0 -0 -0 -0 -0 -0 -0 -0 -0 -0 -0 -0 -0 -0 -0 -0 -0 -0 -0 -0 -0 -0 -0 -0 -0 -0 -0 -0 -0 -0 -0 -0 -0 -0 -26 -16 -11
-0 -0 -0 -0 -0 -0 -0 -0 -0 -0 -0 -0 -0 -0 -0 -0 -0 -0 -0 -0 -0 -0 -0 -0 -0 -0 -0 -0 -0 -0 -0 -9 -0 -0 -0 -0 -0 -0 -0 -0 -0 -0 -0
-0 -0 -0 -0 -0 -0 -0 -0 -0 -0 -0 -0 -0 -0 -0 -0 -0 -0 -0 -0 -0 -0 -0 -0 -0 -0 -0 -0 -0 -4 -0 -10 -4 -12 -65 -0 -0 -0 -0 -0 -0 -0 -0
-0 -0 -0 -0 -0 -0 -0 -0 -0 -0 -0 -0 -0 -0 -0 -0 -0 -0 -0 -0 -0 -0 -0 -0 -0 -0 -0 -25 -58 -44 -0 -24 -1 -0 -0 -0 -0 -0 -0 -0 -0 -0 -0
-0 -0 -0 -0 -0 -0 -0 -0 -0 -0 -0 -0 -0 -0 -0 -0 -0 -0 -0 -0 -0 -0 -0 -0 -0 -0 -0 -0 -0 -0 -86 -0 -5 -3 -4 -0 -0 -0 -0 -0 -0 -0 -0
-0 -0 -0 -0 -0 -0 -0 -0 -0 -0 -0 -0 -0 -0 -0 -0 -0 -0 -0 -0 -0 -0 -0 -0 -0 -0 -0 -0 -0 -0 -0 -8 -8 -0 -7 -3 -0 -0 -0 -7 -25 -23 -60
-0 -0 -0 -0 -0 -0 -0 -0 -0 -0 -0 -0 -0 -0 -0 -0 -0 -0 -0 -0 -0 -0 -0 -0 -0 -0 -0 -0 -0 -0 -0 -0 -0 -57 -78 -0 -27 -53 -34 -48 -44 -63 -53
-0 -0 -0 -0 -0 -0 -0 -0 -0 -0 -0 -0 -0 -0 -0 -0 -0 -0 -0 -0 -0 -0 -0 -0 -0 -0 -0 -0 -0 -0 -0 -0 -0 -0 -17 -88 -4 -0 -11 -77 -88 -95 -0
-0 -0 -0 -0 -0 -0 -0 -0 -0 -0 -0 -0 -0 -0 -0 -0 -0 -0 -0 -0 -0 -0 -0 -0 -0 -0 -0 -0 -0 -0 -0 -0 -0 -0 -0 -54 -80 -69 -0 -71 -0 -0 -0
-0 -0 -0 -0 -0 -0 -0 -0 -0 -0 -0 -0 -0 -0 -0 -0 -0 -0 -0 -0 -0 -0 -0 -0 -0 -0 -0 -0 -0 -0 -0 -0 -0 -0 -0 -0 -0 -36 -0 -0 -0 -0 -0
Wind_Speed
16 17 19 20 21 22 24 25 26 28 30 30 29 28 29 28 28 27 28 29 29 29 29 31 34 34 36 35 34 35 37 35 39 38 32 29 30 27 29 35 37 35 31
17 19 20 23 24 26 27 27 28 28 28 29 30 29 29 29 28 29 30 31 34 36 37 38 40 41 42 41 40 40 40 38 40 45 37 34 33 31 31 33 36 33 30
18 21 24 26 29 29 31 31 31 31 29 29 29 30 31 33 35 36 36 38 39 40 40 40 41 40 42 42 42 43 42 42 41 44 46 39 37 35 36 34 33 32 35
23 26 28 30 32 32 32 33 34 35 35 36 35 35 35 36 37 38 38 38 39 40 41 42 43 43 43 43 43 43 43 43 42 43 45 43 40 37 37 39 40 35 38
25 27 28 29 31 32 33 33 33 34 35 36 37 38 38 38 37 39 39 40 42 43 42 42 42 42 43 43 43 45 44 44 43 43 43 42 40 38 39 37 39 38 38
27 29 30 31 32 34 35 36 37 38 39 39 39 40 41 39 38 41 42 43 45 47 47 45 44 44 44 44 43 41 40 43 44 43 43 42 40 37 36 37 40 41 44
29 31 32 34 34 35 36 38 39 40 41 43 44 44 44 44 44 44 45 47 48 47 47 48 48 45 45 46 46 47 46 43 40 42 44 42 42 38 37 38 39 41 42
32 32 33 35 37 38 40 42 43 43 45 45 46 46 48 47 47 48 48 48 46 46 45 46 46 46 45 45 45 45 44 42 40 38 38 36 34 33 34 34 34 36 39
34 36 37 39 41 43 45 46 47 48 49 48 47 47 46 44 43 42 42 41 41 41 41 40 39 40 40 41 41 42 42 40 38 39 37 34 32 25 23 25 26 36 39
36 37 37 39 42 44 44 45 44 42 42 41 42 41 40 40 37 36 35 34 36 36 35 35 36 37 37 38 38 38 40 40 38 38 37 35 33 25 17 17 19 19 26
36 38 41 42 43 41 41 39 40 40 39 39 38 37 36 35 35 34 35 34 35 36 36 37 37 38 38 40 39 39 40 40 40 39 38 36 31 26 25 23 20 21 13
39 40 40 39 37 36 37 36 36 35 36 37 37 36 34 33 33 31 29 30 32 34 35 33 37 39 40 39 39 38 38 39 37 37 37 36 34 32 29 28 30 33 38
38 37 36 35 34 33 33 34 34 34 34 35 35 35 35 32 30 29 29 30 30 32 30 32 33 30 32 36 39 40 40 37 34 32 33 34 35 34 32 31 33 34 29
35 34 33 32 33 33 32 31 31 31 32 34 36 37 37 36 32 29 26 25 25 25 27 28 29 32 30 27 34 34 32 31 30 32 31 29 30 28 32 31 32 27 22
32 32 31 30 32 32 30 27 27 27 27 29 30 31 35 37 36 32 29 27 23 22 27 19 15 17 14 7 5 7 16 28 13 16 24 26 24 21 25 28 27 26 26
31 29 29 30 30 27 26 27 27 24 23 23 17 15 12 6 17 18 18 5 3 9 5 4 6 8 10 11 12 15 17 20 19 14 6 11 17 17 20 21 20 21 23
29 28 28 27 24 21 23 27 29 29 24 21 15 6 6 11 14 13 6 5 4 5 6 8 9 8 9 6 4 7 11 13 14 9 11 10 8 7 11 14 15 15 17
26 25 22 22 17 16 21 25 22 23 22 18 6 10 15 15 14 10 7 5 6 5 6 6 7 4 3 3 4 1 3 2 8 7 11 8 7 5 3 11 15 16 15
25 21 19 17 15 15 19 21 19 20 17 11 10 9 12 10 8 8 3 2 3 3 2 1 2 2 2 3 2 6 7 4 3 3 7 26 24 19 19 25 20 24 24
20 19 19 18 17 16 20 17 19 15 13 13 10 6 7 3 3 3 1 2 2 1 1 1 1 1 6 6 3 11 9 9 15 21 24 30 33 32 29 30 31 31 30
21 21 21 20 16 14 18 10 14 7 7 9 9 6 4 2 3 3 2 3 2 2 2 4 4 4 7 5 1 7 12 16 21 27 27 31 33 33 32 30 31 30 26
24 23 21 20 7 6 14 7 12 6 7 6 4 4 4 5 5 4 3 1 3 1 8 11 7 6 9 10 10 12 12 14 19 24 29 30 30 29 29 28 27 23 28
25 25 23 19 4 8 3 3 7 3 2 3 2 2 2 3 4 2 3 4 2 2 5 16 11 9 8 8 9 9 9 8 11 17 22 27 28 27 29 30 31 30 26
24 27 25 21 16 14 14 10 7 3 7 5 4 4 5 5 4 5 5 7 1 1 4 10 9 9 9 9 9 9 8 7 10 9 12 22 28 27 26 24 24 24 23
22 24 28 28 25 14 14 18 18 17 11 10 16 15 13 11 10 11 11 6 2 3 10 12 12 13 14 14 14 13 11 11 10 5 4 4 15 23 22 23 24 24 24
22 23 27 29 30 27 14 13 19 20 19 17 16 14 15 16 18 17 16 18 14 12 11 14 14 17 19 19 18 18 17 15 13 12 10 19 15 7 0 22 22 22 21
Wind_Direction
324 328 330 329 329 328 327 324 322 318 314 315 316 313 306 302 303 304 303 300 297 296 297 298 298 299 300 300 301 301 301 301 300 304 304 306 307 308 308 305 308 308 309
339 334 332 330 327 326 324 323 323 323 323 319 315 315 314 310 307 304 303 302 301 300 300 299 299 299 297 297 297 298 298 298 297 299 300 299 299 303 304 306 304 305 304
337 331 328 326 323 324 322 321 321 320 320 319 316 313 309 306 304 303 302 300 300 300 300 300 301 303 301 301 299 298 297 296 295 295 296 297 297 298 299 300 301 301 301
328 325 323 321 320 322 322 320 318 316 313 311 310 309 307 306 303 302 302 302 301 301 301 301 301 301 300 300 301 301 301 298 297 295 295 296 296 296 295 296 295 297 297
331 327 325 325 325 323 322 322 322 320 317 315 313 311 310 308 306 305 304 303 301 301 301 301 301 300 300 299 299 298 298 298 297 297 296 297 297 296 294 295 293 294 295
331 329 328 327 326 324 322 321 319 317 316 315 314 312 310 309 309 307 305 303 301 301 300 300 301 301 300 299 298 298 297 296 295 295 295 295 296 295 295 294 292 290 288
333 331 330 328 326 325 324 322 320 318 316 314 312 311 308 307 306 304 303 302 301 300 299 299 299 299 299 298 296 295 294 293 292 293 291 291 292 293 294 291 287 286 285
335 334 333 330 328 325 323 321 320 318 316 314 312 311 308 307 306 304 303 302 300 300 300 300 300 300 299 298 297 295 295 296 296 295 291 291 290 292 290 290 291 289 286
333 332 330 329 326 324 322 320 319 317 315 314 314 313 312 312 312 310 307 305 304 303 304 305 304 303 303 301 298 296 296 297 300 298 296 293 290 278 270 284 280 286 283
336 334 333 331 328 325 324 323 323 324 323 323 321 320 318 317 317 317 316 315 311 310 310 309 307 305 304 303 301 300 298 298 300 299 300 299 297 294 279 277 278 268 282
338 334 332 331 329 330 330 331 330 330 329 328 327 326 323 321 319 317 316 315 313 311 309 308 308 306 302 300 298 297 296 299 297 296 295 295 295 294 295 296 293 285 248
336 335 334 334 337 338 337 338 339 339 338 336 334 332 330 327 325 322 320 319 317 315 313 313 312 309 303 300 299 299 299 298 298 295 290 287 286 286 287 289 285 273 257
338 338 338 340 344 346 346 346 346 346 344 341 339 336 335 336 335 332 329 326 323 320 320 318 318 319 314 306 301 298 297 296 295 293 291 285 281 280 281 280 276 268 271
338 338 342 348 350 352 353 354 353 354 352 347 341 335 332 332 335 336 337 338 338 334 330 328 325 320 319 319 310 307 306 300 295 289 289 291 285 280 273 272 268 268 272
337 343 351 355 356 356 360 4 4 1 359 356 355 350 339 333 332 334 336 338 344 345 338 356 5 360 352 337 320 314 297 276 297 297 293 289 286 284 274 269 266 263 264
342 351 358 360 2 9 12 11 10 9 10 14 19 19 22 307 282 281 283 340 136 223 197 200 237 245 243 250 249 247 238 232 223 211 254 290 288 279 273 267 264 263 262
349 359 4 9 17 24 23 18 14 19 30 34 41 25 299 289 291 280 237 236 193 186 194 231 243 245 258 255 227 236 230 223 224 214 205 197 179 268 265 265 262 265 264
360 10 20 23 35 37 32 27 34 38 38 40 19 305 304 302 302 290 263 233 252 205 215 233 253 258 258 275 294 224 218 199 229 168 179 159 173 196 216 256 253 254 255
9 25 30 40 48 47 40 41 46 46 47 47 43 315 311 308 301 308 280 183 199 195 203 204 139 193 306 330 42 61 77 68 126 230 186 123 128 127 139 162 215 216 218
31 37 39 44 51 55 46 54 52 57 58 60 57 47 319 295 301 315 277 156 138 146 200 159 211 17 58 319 319 74 89 84 102 106 119 131 140 151 162 169 171 174 174
38 41 46 50 66 69 57 80 67 81 76 72 68 66 14 73 94 119 138 93 81 61 92 122 82 358 40 62 35 104 99 96 103 108 118 121 127 136 141 147 155 172 180
31 44 53 61 106 105 83 114 87 101 92 83 61 57 28 89 94 108 106 48 28 74 109 104 68 31 5 81 84 90 93 95 99 110 113 122 130 139 146 142 135 189 167
19 36 55 70 148 293 172 166 114 120 111 99 92 45 44 66 59 28 67 35 12 6 15 10 31 66 38 65 58 82 88 100 114 118 125 116 122 131 128 124 127 141 150
7 25 51 74 90 321 326 314 303 294 305 303 307 322 334 325 346 348 347 77 54 67 6 2 16 30 30 41 38 36 43 76 109 131 146 137 126 131 137 144 145 138 143
7 12 38 62 73 104 332 341 341 337 327 321 330 326 322 323 324 335 342 348 41 360 344 347 346 353 355 355 357 360 2 6 14 63 50 9 146 132 138 133 127 120 119
14 17 24 34 42 71 105 332 345 347 345 339 333 327 330 327 330 330 334 345 339 325 324 330 331 335 338 339 340 341 344 347 349 348 346 11 5 324 39 96 103 100 98